| time (UTC) | temp C | wind direction | speed KPH | gust KPH | rain 1hr cm | rain 24hr cm | rain mn cm | humidity % | barometer mb |
| 20260509224340 | 12 | 249 | 6.4 | 6.4 | 0.00 | 0.69 | 0.69 | 79 | 1004.1 |
| 20260509223837 | 12 | 235 | 0.0 | 4.8 | 0.00 | 0.69 | 0.69 | 77 | 1004.1 |
| 20260509223333 | 12 | 96 | 3.2 | 12.9 | 0.00 | 0.69 | 0.69 | 77 | 1004.0 |
| 20260509223057 | 12 | 239 | 3.2 | 8.0 | 0.00 | 0.66 | 0.66 | 77 | 1003.0 |
| 20260509222831 | 12 | 218 | 3.2 | 8.0 | 0.00 | 0.69 | 0.69 | 77 | 1003.9 |
| 20260509222326 | 13 | 54 | 3.2 | 3.2 | 0.00 | 0.69 | 0.69 | 76 | 1004.0 |
| 20260509221821 | 13 | 297 | 3.2 | 6.4 | 0.00 | 0.69 | 0.69 | 77 | 1004.1 |
| 20260509221556 | 12 | 230 | 3.2 | 4.8 | 0.00 | 0.66 | 0.66 | 78 | 1003.0 |
| 20260509221319 | 13 | 75 | 1.6 | 3.2 | 0.00 | 0.69 | 0.69 | 77 | 1004.0 |
| 20260509220819 | 13 | 244 | 6.4 | 6.4 | 0.00 | 0.69 | 0.69 | 77 | 1004.0 |
| 20260509220315 | 13 | 53 | 3.2 | 3.2 | 0.00 | 0.69 | 0.69 | 78 | 1004.0 |
| 20260509220057 | 12 | 250 | 0.0 | 4.8 | 0.00 | 0.66 | 0.66 | 79 | 1003.1 |
| 20260509215811 | 13 | 228 | 0.0 | 6.4 | 0.00 | 0.69 | 0.69 | 77 | 1004.2 |
| 20260509215308 | 12 | 222 | 3.2 | 4.8 | 0.00 | 0.69 | 0.69 | 80 | 1004.3 |
| 20260509214805 | 12 | 233 | 1.6 | 4.8 | 0.00 | 0.69 | 0.69 | 81 | 1004.2 |
| 20260509214302 | 12 | 73 | 1.6 | 4.8 | 0.00 | 0.69 | 0.69 | 84 | 1004.5 |
| 20260509213759 | 12 | 49 | 0.0 | 3.2 | 0.00 | 0.69 | 0.69 | 82 | 1004.7 |
| 20260509213254 | 12 | 68 | 3.2 | 3.2 | 0.00 | 0.69 | 0.69 | 83 | 1004.5 |
| 20260509213057 | 12 | 159 | 0.0 | 4.8 | 0.00 | 0.66 | 0.66 | 84 | 1003.5 |
| 20260509212752 | 12 | 50 | 0.0 | 4.8 | 0.00 | 0.69 | 0.69 | 83 | 1004.7 |
| 20260509212249 | 12 | 309 | 0.0 | 3.2 | 0.00 | 0.69 | 0.69 | 81 | 1004.7 |
| 20260509211745 | 12 | 53 | 3.2 | 6.4 | 0.00 | 0.69 | 0.69 | 82 | 1004.7 |
| 20260509211556 | 12 | 272 | 1.6 | 4.8 | 0.00 | 0.66 | 0.66 | 84 | 1003.6 |
| 20260509211242 | 12 | 50 | 0.0 | 3.2 | 0.00 | 0.69 | 0.69 | 84 | 1004.6 |
| 20260509210738 | 12 | 65 | 3.2 | 3.2 | 0.00 | 0.69 | 0.69 | 83 | 1004.9 |
| 20260509210236 | 12 | 76 | 3.2 | 4.8 | 0.00 | 0.69 | 0.69 | 81 | 1004.7 |
| 20260509210056 | 11 | 66 | 1.6 | 3.2 | 0.00 | 0.66 | 0.66 | 83 | 1003.7 |
| 20260509205735 | 12 | 56 | 3.2 | 3.2 | 0.00 | 0.69 | 0.69 | 84 | 1004.7 |
| 20260509205230 | 11 | 228 | 0.0 | 3.2 | 0.00 | 0.69 | 0.69 | 83 | 1004.5 |
| 20260509204726 | 11 | 15 | 1.6 | 4.8 | 0.00 | 0.69 | 0.69 | 84 | 1004.8 |
| 20260509204556 | 11 | 97 | 1.6 | 4.8 | 0.03 | 0.66 | 0.66 | 86 | 1003.7 |
| 20260509204223 | 11 | 61 | 3.2 | 3.2 | 0.00 | 0.69 | 0.69 | 85 | 1004.8 |
| 20260509203718 | 11 | 58 | 1.6 | 3.2 | 0.00 | 0.69 | 0.69 | 87 | 1005.0 |
| 20260509203217 | 11 | 56 | 3.2 | 4.8 | 0.00 | 0.69 | 0.69 | 87 | 1004.8 |
| 20260509203057 | 11 | 197 | 0.0 | 1.6 | 0.03 | 0.66 | 0.66 | 88 | 1003.8 |
| 20260509202712 | 11 | 59 | 3.2 | 3.2 | 0.00 | 0.69 | 0.69 | 88 | 1005.0 |
| 20260509202208 | 11 | 54 | 3.2 | 4.8 | 0.05 | 0.69 | 0.69 | 88 | 1004.9 |
| 20260509201703 | 11 | 56 | 3.2 | 3.2 | 0.00 | 0.66 | 0.66 | 87 | 1004.8 |
| 20260509201200 | 11 | 70 | 3.2 | 3.2 | 0.00 | 0.66 | 0.66 | 86 | 1005.1 |
| 20260509200656 | 11 | 47 | 1.6 | 3.2 | 0.00 | 0.66 | 0.66 | 85 | 1005.1 |
| 20260509200151 | 11 | 38 | 0.0 | 3.2 | 0.00 | 0.66 | 0.66 | 88 | 1005.0 |
| 20260509195648 | 11 | 50 | 1.6 | 3.2 | 0.00 | 0.66 | 0.66 | 87 | 1005.1 |
| 20260509195143 | 11 | 231 | 1.6 | 4.8 | 0.00 | 0.66 | 0.66 | 85 | 1005.0 |
| 20260509194643 | 11 | 49 | 1.6 | 3.2 | 0.00 | 0.66 | 0.66 | 85 | 1005.2 |
| 20260509194557 | 11 | 233 | 1.6 | 11.3 | 0.03 | 0.64 | 0.64 | 85 | 1004.2 |
| 20260509194140 | 11 | 57 | 6.4 | 6.4 | 0.00 | 0.66 | 0.66 | 86 | 1005.3 |
| 20260509193636 | 11 | 302 | 0.0 | 6.4 | 0.00 | 0.66 | 0.66 | 86 | 1005.4 |
| 20260509193131 | 11 | 208 | 1.6 | 9.7 | 0.00 | 0.66 | 0.66 | 86 | 1005.3 |
| 20260509193058 | 11 | 233 | 3.2 | 11.3 | 0.03 | 0.64 | 0.64 | 86 | 1004.4 |
| 20260509192628 | 11 | 42 | 3.2 | 8.0 | 0.00 | 0.66 | 0.66 | 88 | 1005.4 |
| 20260509192124 | 11 | 320 | 0.0 | 3.2 | 0.00 | 0.66 | 0.66 | 87 | 1005.4 |
| 20260509191623 | 11 | 260 | 3.2 | 4.8 | 0.00 | 0.66 | 0.66 | 87 | 1005.8 |
| 20260509191556 | 11 | 237 | 1.6 | 14.5 | 0.03 | 0.64 | 0.64 | 87 | 1004.6 |
| 20260509191121 | 11 | 73 | 6.4 | 6.4 | 0.05 | 0.66 | 0.66 | 88 | 1005.7 |
| 20260509190617 | 10 | 249 | 0.0 | 6.4 | 0.05 | 0.66 | 0.66 | 87 | 1005.8 |
| 20260509190115 | 10 | 224 | 0.0 | 6.4 | 0.05 | 0.66 | 0.66 | 88 | 1005.5 |
| 20260509185612 | 11 | 228 | 1.6 | 3.2 | 0.05 | 0.66 | 0.66 | 87 | 1005.6 |
| 20260509185108 | 11 | 243 | 14.5 | 16.1 | 0.05 | 0.66 | 0.66 | 87 | 1005.7 |
| 20260509184606 | 11 | 235 | 3.2 | 11.3 | 0.00 | 0.64 | 0.64 | 86 | 1006.0 |
| 20260509184557 | 11 | 221 | 4.8 | 16.1 | 0.00 | 0.61 | 0.61 | 85 | 1004.8 |
| 20260509184103 | 11 | 66 | 0.0 | 11.3 | 0.00 | 0.64 | 0.64 | 86 | 1005.6 |
| 20260509183558 | 11 | 234 | 3.2 | 4.8 | 0.00 | 0.64 | 0.64 | 89 | 1005.8 |
| 20260509183057 | 11 | 288 | 3.2 | 4.8 | 0.03 | 0.61 | 0.61 | 86 | 1004.8 |
| 20260509183054 | 11 | 49 | 3.2 | 6.4 | 0.00 | 0.64 | 0.64 | 87 | 1005.6 |
| 20260509182551 | 11 | 224 | 1.6 | 8.0 | 0.00 | 0.64 | 0.64 | 87 | 1005.9 |
| 20260509182047 | 11 | 56 | 3.2 | 4.8 | 0.00 | 0.64 | 0.64 | 87 | 1005.8 |
| 20260509181556 | 11 | 86 | 3.2 | 22.5 | 0.03 | 0.61 | 0.61 | 86 | 1004.7 |
| 20260509181546 | 10 | 76 | 0.0 | 8.0 | 0.05 | 0.64 | 0.64 | 87 | 1005.6 |
| 20260509181042 | 10 | 232 | 6.4 | 27.4 | 0.05 | 0.64 | 0.64 | 85 | 1005.6 |
| 20260509180538 | 10 | 255 | 1.6 | 8.0 | 0.05 | 0.64 | 0.64 | 88 | 1005.4 |
| 20260509180056 | 11 | 205 | 3.2 | 11.3 | 0.05 | 0.61 | 0.61 | 86 | 1004.6 |
| 20260509180036 | 10 | 65 | 4.8 | 6.4 | 0.05 | 0.64 | 0.64 | 87 | 1005.4 |
| 20260509175531 | 10 | 75 | 3.2 | 9.7 | 0.00 | 0.61 | 0.61 | 87 | 1005.6 |
| 20260509175028 | 11 | 34 | 3.2 | 6.4 | 0.00 | 0.61 | 0.61 | 90 | 1005.6 |
| 20260509174526 | 10 | 249 | 1.6 | 4.8 | 0.00 | 0.61 | 0.61 | 88 | 1005.6 |
| 20260509174020 | 10 | 82 | 4.8 | 6.4 | 0.00 | 0.61 | 0.61 | 87 | 1005.7 |
| 20260509173514 | 10 | 46 | 1.6 | 11.3 | 0.05 | 0.61 | 0.61 | 88 | 1005.5 |
| 20260509173057 | 10 | 179 | 3.2 | 11.3 | 0.03 | 0.58 | 0.58 | 88 | 1004.7 |
| 20260509173011 | 10 | 86 | 0.0 | 6.4 | 0.13 | 0.61 | 0.61 | 88 | 1005.4 |
| 20260509172508 | 10 | 253 | 0.0 | 6.4 | 0.05 | 0.61 | 0.61 | 88 | 1005.7 |
| 20260509172004 | 10 | 222 | 3.2 | 6.4 | 0.05 | 0.61 | 0.61 | 89 | 1005.6 |
| 20260509171500 | 10 | 223 | 1.6 | 19.3 | 0.05 | 0.61 | 0.61 | 88 | 1005.7 |
| 20260509170956 | 10 | 247 | 3.2 | 8.0 | 0.00 | 0.58 | 0.58 | 89 | 1005.6 |
| 20260509170452 | 10 | 243 | 4.8 | 6.4 | 0.05 | 0.58 | 0.58 | 89 | 1005.7 |
| 20260509170056 | 10 | 262 | 1.6 | 9.7 | 0.05 | 0.58 | 0.56 | 90 | 1004.8 |
| 20260509165948 | 10 | 15 | 3.2 | 6.4 | 0.05 | 0.58 | 0.58 | 89 | 1005.7 |
| 20260509165447 | 10 | 282 | 3.2 | 11.3 | 0.00 | 0.58 | 0.58 | 90 | 1005.6 |
| 20260509164943 | 10 | 54 | 0.0 | 4.8 | 0.00 | 0.58 | 0.58 | 92 | 1005.9 |
| 20260509164557 | 10 | 235 | 0.0 | 9.7 | 0.05 | 0.61 | 0.56 | 92 | 1004.8 |
| 20260509164439 | 10 | 61 | 3.2 | 3.2 | 0.00 | 0.58 | 0.58 | 91 | 1005.7 |
| 20260509163935 | 10 | 252 | 3.2 | 4.8 | 0.05 | 0.58 | 0.58 | 92 | 1005.8 |
| 20260509163433 | 10 | 66 | 3.2 | 14.5 | 0.13 | 0.58 | 0.58 | 91 | 1005.8 |
| 20260509163057 | 10 | 234 | 1.6 | 4.8 | 0.08 | 0.69 | 0.56 | 94 | 1005.0 |
| 20260509162931 | 10 | 35 | 0.0 | 6.4 | 0.05 | 0.56 | 0.56 | 93 | 1006.0 |
| 20260509162431 | 10 | 60 | 4.8 | 6.4 | 0.05 | 0.56 | 0.56 | 94 | 1005.9 |
| 20260509161926 | 10 | 36 | 1.6 | 4.8 | 0.13 | 0.56 | 0.56 | 94 | 1005.9 |
| 20260509161557 | 10 | 231 | 1.6 | 3.2 | 0.08 | 0.71 | 0.53 | 95 | 1005.1 |
| 20260509161422 | 10 | 212 | 0.0 | 3.2 | 0.13 | 0.56 | 0.56 | 94 | 1006.0 |
| 20260509160918 | 10 | 70 | 0.0 | 4.8 | 0.05 | 0.53 | 0.53 | 94 | 1006.0 |
| 20260509160414 | 10 | 42 | 1.6 | 3.2 | 0.00 | 0.53 | 0.53 | 95 | 1006.1 |
| 20260509160056 | 10 | 264 | 0.0 | 4.8 | 0.05 | 0.69 | 0.51 | 96 | 1005.2 |
| 20260509155909 | 10 | 44 | 3.2 | 3.2 | 0.05 | 0.53 | 0.53 | 95 | 1006.1 |
| 20260509155406 | 10 | 34 | 0.0 | 3.2 | 0.05 | 0.51 | 0.51 | 95 | 1006.1 |
| 20260509154902 | 10 | 76 | 3.2 | 3.2 | 0.05 | 0.51 | 0.51 | 95 | 1006.2 |
| 20260509154359 | 10 | 46 | 3.2 | 3.2 | 0.05 | 0.51 | 0.51 | 95 | 1006.6 |
| 20260509153855 | 10 | 45 | 3.2 | 3.2 | 0.05 | 0.51 | 0.51 | 95 | 1006.4 |
| 20260509153353 | 10 | 47 | 3.2 | 4.8 | 0.05 | 0.51 | 0.51 | 95 | 1006.3 |
| 20260509153056 | 10 | 5 | 0.0 | 1.6 | 0.08 | 0.66 | 0.48 | 96 | 1005.5 |
| 20260509152850 | 10 | 62 | 1.6 | 3.2 | 0.13 | 0.51 | 0.51 | 95 | 1006.4 |
| 20260509152346 | 10 | 65 | 1.6 | 4.8 | 0.13 | 0.48 | 0.48 | 95 | 1006.8 |
| 20260509151843 | 10 | 44 | 4.8 | 6.4 | 0.05 | 0.48 | 0.48 | 95 | 1006.6 |
| 20260509151556 | 10 | 355 | 0.0 | 0.0 | 0.08 | 0.64 | 0.46 | 96 | 1005.7 |
| 20260509151339 | 10 | 60 | 3.2 | 3.2 | 0.13 | 0.48 | 0.48 | 95 | 1006.8 |
| 20260509150838 | 10 | 36 | 3.2 | 4.8 | 0.13 | 0.46 | 0.46 | 95 | 1006.7 |
| 20260509150335 | 9 | 47 | 3.2 | 4.8 | 0.13 | 0.46 | 0.46 | 95 | 1006.7 |
| 20260509145832 | 9 | 67 | 3.2 | 3.2 | 0.13 | 0.46 | 0.46 | 95 | 1006.9 |
| 20260509145327 | 9 | 36 | 1.6 | 3.2 | 0.05 | 0.43 | 0.43 | 95 | 1006.7 |
| 20260509144824 | 9 | 39 | 3.2 | 4.8 | 0.05 | 0.43 | 0.43 | 96 | 1006.9 |
| 20260509144556 | 9 | 281 | 0.0 | 3.2 | 0.05 | 0.61 | 0.43 | 97 | 1005.9 |
| 20260509144321 | 9 | 63 | 0.0 | 3.2 | 0.05 | 0.43 | 0.43 | 96 | 1006.8 |
| 20260509143818 | 9 | 64 | 3.2 | 4.8 | 0.05 | 0.43 | 0.43 | 96 | 1006.8 |
| 20260509143315 | 9 | 56 | 3.2 | 4.8 | 0.05 | 0.41 | 0.41 | 96 | 1006.9 |
| 20260509143057 | 9 | 281 | 0.0 | 0.0 | 0.05 | 0.58 | 0.41 | 97 | 1006.0 |
| 20260509142811 | 9 | 73 | 1.6 | 4.8 | 0.05 | 0.41 | 0.41 | 96 | 1006.8 |
| 20260509142307 | 9 | 63 | 3.2 | 4.8 | 0.00 | 0.41 | 0.41 | 96 | 1007.0 |
| 20260509141803 | 9 | 46 | 1.6 | 3.2 | 0.05 | 0.41 | 0.41 | 96 | 1007.1 |
| 20260509141300 | 9 | 51 | 1.6 | 3.2 | 0.05 | 0.41 | 0.41 | 96 | 1006.8 |
| 20260509140757 | 8 | 54 | 3.2 | 3.2 | 0.05 | 0.38 | 0.38 | 97 | 1007.0 |
| 20260509140254 | 8 | 78 | 3.2 | 4.8 | 0.05 | 0.38 | 0.38 | 97 | 1006.8 |
| 20260509140056 | 8 | 281 | 0.0 | 1.6 | 0.05 | 0.56 | 0.38 | 97 | 1005.9 |
| 20260509135752 | 8 | 62 | 1.6 | 4.8 | 0.00 | 0.38 | 0.38 | 97 | 1007.0 |
| 20260509135249 | 8 | 57 | 3.2 | 4.8 | 0.05 | 0.38 | 0.38 | 97 | 1006.8 |
| 20260509134746 | 8 | 74 | 3.2 | 4.8 | 0.05 | 0.38 | 0.38 | 97 | 1006.9 |
| 20260509134243 | 8 | 59 | 1.6 | 3.2 | 0.05 | 0.38 | 0.38 | 97 | 1006.7 |
| 20260509133740 | 8 | 60 | 3.2 | 4.8 | 0.05 | 0.38 | 0.38 | 97 | 1006.8 |
| 20260509133237 | 8 | 50 | 4.8 | 4.8 | 0.00 | 0.36 | 0.36 | 97 | 1006.9 |
| 20260509133057 | 8 | 281 | 0.0 | 1.6 | 0.05 | 0.56 | 0.36 | 97 | 1005.8 |
| 20260509132736 | 8 | 42 | 3.2 | 4.8 | 0.05 | 0.36 | 0.36 | 97 | 1006.7 |
| 20260509132234 | 8 | 52 | 4.8 | 4.8 | 0.05 | 0.36 | 0.36 | 97 | 1006.6 |
| 20260509131730 | 8 | 54 | 3.2 | 3.2 | 0.00 | 0.36 | 0.36 | 97 | 1006.8 |
| 20260509131557 | 8 | 281 | 0.0 | 1.6 | 0.05 | 0.56 | 0.36 | 97 | 1005.8 |
| 20260509131227 | 8 | 40 | 1.6 | 3.2 | 0.05 | 0.36 | 0.36 | 97 | 1006.4 |
| 20260509130723 | 8 | 41 | 1.6 | 3.2 | 0.05 | 0.36 | 0.36 | 97 | 1006.6 |
| 20260509130219 | 8 | 34 | 3.2 | 3.2 | 0.00 | 0.33 | 0.33 | 97 | 1006.7 |
| 20260509125715 | 8 | 59 | 4.8 | 4.8 | 0.05 | 0.33 | 0.33 | 97 | 1006.3 |
| 20260509125213 | 8 | 43 | 1.6 | 3.2 | 0.05 | 0.33 | 0.33 | 97 | 1006.8 |
| 20260509124709 | 8 | 46 | 3.2 | 4.8 | 0.05 | 0.33 | 0.33 | 97 | 1006.8 |
| 20260509124556 | 8 | 281 | 0.0 | 1.6 | 0.05 | 0.53 | 0.33 | 97 | 1005.8 |
| 20260509124206 | 8 | 76 | 3.2 | 3.2 | 0.05 | 0.33 | 0.33 | 97 | 1006.9 |
| 20260509123704 | 8 | 69 | 3.2 | 3.2 | 0.05 | 0.33 | 0.33 | 97 | 1006.9 |
| 20260509123201 | 8 | 62 | 4.8 | 4.8 | 0.05 | 0.30 | 0.30 | 97 | 1006.8 |
| 20260509123057 | 8 | 281 | 0.0 | 1.6 | 0.03 | 0.51 | 0.30 | 97 | 1005.9 |
| 20260509122656 | 8 | 35 | 3.2 | 3.2 | 0.13 | 0.30 | 0.30 | 97 | 1006.8 |
| 20260509122153 | 8 | 51 | 3.2 | 4.8 | 0.05 | 0.30 | 0.30 | 97 | 1006.7 |
| 20260509121650 | 8 | 71 | 3.2 | 3.2 | 0.05 | 0.28 | 0.28 | 97 | 1006.9 |
| 20260509121556 | 8 | 281 | 0.0 | 1.6 | 0.03 | 0.51 | 0.30 | 97 | 1006.0 |
| 20260509121148 | 8 | 78 | 4.8 | 6.4 | 0.05 | 0.28 | 0.28 | 97 | 1006.8 |
| 20260509120646 | 8 | 53 | 0.0 | 3.2 | 0.05 | 0.28 | 0.28 | 97 | 1006.9 |
| 20260509120143 | 8 | 98 | 1.6 | 3.2 | 0.05 | 0.28 | 0.28 | 97 | 1006.8 |
| 20260509120057 | 8 | 281 | 0.0 | 1.6 | 0.00 | 0.48 | 0.28 | 97 | 1005.9 |
| 20260509115641 | 8 | 39 | 4.8 | 4.8 | 0.00 | 0.28 | 0.28 | 97 | 1006.9 |
| 20260509115138 | 8 | 49 | 3.2 | 4.8 | 0.00 | 0.28 | 0.28 | 97 | 1006.8 |
| 20260509114636 | 7 | 54 | 3.2 | 4.8 | 0.00 | 0.28 | 0.28 | 97 | 1007.0 |
| 20260509114557 | 8 | 281 | 0.0 | 1.6 | 0.00 | 0.48 | 0.28 | 97 | 1005.9 |
| 20260509114135 | 8 | 69 | 4.8 | 4.8 | 0.00 | 0.28 | 0.28 | 97 | 1006.9 |
| 20260509113633 | 7 | 59 | 3.2 | 3.2 | 0.00 | 0.28 | 0.28 | 97 | 1007.0 |
| 20260509113130 | 7 | 68 | 3.2 | 4.8 | 0.00 | 0.28 | 0.28 | 97 | 1007.0 |
| 20260509113057 | 8 | 281 | 0.0 | 1.6 | 0.00 | 0.48 | 0.28 | 97 | 1005.9 |
| 20260509112626 | 7 | 55 | 3.2 | 4.8 | 0.00 | 0.28 | 0.28 | 97 | 1006.9 |
| 20260509112124 | 7 | 65 | 3.2 | 4.8 | 0.00 | 0.28 | 0.28 | 97 | 1007.0 |
| 20260509111620 | 7 | 76 | 0.0 | 3.2 | 0.00 | 0.28 | 0.28 | 97 | 1007.2 |
| 20260509111556 | 7 | 281 | 0.0 | 1.6 | 0.00 | 0.48 | 0.28 | 97 | 1006.3 |
| 20260509111117 | 7 | 66 | 3.2 | 4.8 | 0.00 | 0.28 | 0.28 | 97 | 1007.2 |
| 20260509110614 | 7 | 70 | 3.2 | 3.2 | 0.00 | 0.28 | 0.28 | 97 | 1007.2 |
| 20260509110112 | 7 | 49 | 3.2 | 3.2 | 0.00 | 0.28 | 0.28 | 97 | 1007.2 |
| 20260509110057 | 7 | 281 | 0.0 | 0.0 | 0.00 | 0.48 | 0.28 | 97 | 1006.2 |
| 20260509105610 | 7 | 60 | 3.2 | 3.2 | 0.00 | 0.28 | 0.28 | 97 | 1007.0 |
| 20260509105107 | 7 | 63 | 3.2 | 3.2 | 0.00 | 0.28 | 0.28 | 97 | 1007.3 |
| 20260509104603 | 7 | 55 | 3.2 | 3.2 | 0.00 | 0.28 | 0.28 | 97 | 1007.3 |
| 20260509104556 | 7 | 281 | 0.0 | 0.0 | 0.03 | 0.48 | 0.28 | 96 | 1006.2 |
| 20260509104100 | 7 | 54 | 1.6 | 3.2 | 0.00 | 0.28 | 0.28 | 97 | 1007.3 |
| 20260509103558 | 7 | 49 | 3.2 | 3.2 | 0.00 | 0.28 | 0.28 | 97 | 1007.1 |
| 20260509103056 | 7 | 34 | 0.0 | 3.2 | 0.00 | 0.28 | 0.28 | 97 | 1007.1 |
| 20260509102553 | 7 | 57 | 1.6 | 3.2 | 0.00 | 0.28 | 0.28 | 97 | 1007.1 |
| 20260509102050 | 7 | 62 | 3.2 | 3.2 | 0.00 | 0.28 | 0.28 | 97 | 1007.1 |
| 20260509101546 | 7 | 66 | 3.2 | 3.2 | 0.00 | 0.28 | 0.28 | 97 | 1007.0 |
| 20260509101043 | 7 | 69 | 3.2 | 3.2 | 0.00 | 0.28 | 0.28 | 97 | 1006.9 |
| 20260509100540 | 7 | 59 | 3.2 | 3.2 | 0.00 | 0.28 | 0.28 | 97 | 1007.1 |
| 20260509100055 | 7 | 281 | 0.0 | 1.6 | 0.05 | 0.48 | 0.28 | 96 | 1006.1 |
| 20260509100038 | 7 | 65 | 3.2 | 3.2 | 0.05 | 0.28 | 0.28 | 97 | 1007.1 |
| 20260509095534 | 7 | 46 | 3.2 | 3.2 | 0.05 | 0.28 | 0.28 | 97 | 1007.4 |
| 20260509095032 | 7 | 61 | 3.2 | 3.2 | 0.05 | 0.25 | 0.25 | 97 | 1007.4 |
| 20260509094557 | 7 | 281 | 0.0 | 1.6 | 0.03 | 0.46 | 0.25 | 96 | 1006.4 |
| 20260509094528 | 7 | 68 | 3.2 | 3.2 | 0.05 | 0.25 | 0.25 | 97 | 1007.4 |
| 20260509094025 | 7 | 47 | 1.6 | 3.2 | 0.05 | 0.25 | 0.25 | 97 | 1007.6 |
| 20260509093523 | 7 | 49 | 1.6 | 3.2 | 0.05 | 0.25 | 0.25 | 97 | 1007.1 |
| 20260509093021 | 7 | 66 | 0.0 | 1.6 | 0.00 | 0.23 | 0.23 | 97 | 1007.1 |
| 20260509092518 | 7 | 60 | 0.0 | 3.2 | 0.00 | 0.23 | 0.23 | 97 | 1007.2 |
| 20260509092017 | 7 | 58 | 1.6 | 3.2 | 0.00 | 0.23 | 0.23 | 97 | 1007.1 |
| 20260509091514 | 7 | 65 | 3.2 | 3.2 | 0.00 | 0.23 | 0.23 | 97 | 1007.3 |
| 20260509091010 | 7 | 44 | 0.0 | 1.6 | 0.00 | 0.23 | 0.23 | 97 | 1007.3 |
| 20260509090508 | 7 | 60 | 3.2 | 3.2 | 0.00 | 0.23 | 0.23 | 97 | 1007.3 |
| 20260509090056 | 7 | 281 | 0.0 | 1.6 | 0.00 | 0.43 | 0.23 | 96 | 1006.4 |
| 20260509090006 | 7 | 50 | 3.2 | 3.2 | 0.00 | 0.23 | 0.23 | 97 | 1007.3 |
| 20260509085502 | 7 | 46 | 3.2 | 3.2 | 0.00 | 0.23 | 0.23 | 96 | 1007.3 |
| 20260509084958 | 7 | 66 | 3.2 | 3.2 | 0.00 | 0.23 | 0.23 | 96 | 1007.4 |
| 20260509084556 | 7 | 281 | 0.0 | 1.6 | 0.03 | 0.43 | 0.23 | 96 | 1006.3 |
| 20260509084455 | 7 | 69 | 3.2 | 3.2 | 0.00 | 0.23 | 0.23 | 96 | 1007.4 |
| 20260509083953 | 7 | 67 | 1.6 | 3.2 | 0.05 | 0.23 | 0.23 | 96 | 1007.2 |
| 20260509083450 | 7 | 47 | 3.2 | 4.8 | 0.05 | 0.23 | 0.23 | 96 | 1007.4 |
| 20260509083057 | 7 | 281 | 0.0 | 0.0 | 0.03 | 0.43 | 0.23 | 95 | 1006.4 |
| 20260509082946 | 7 | 71 | 3.2 | 3.2 | 0.05 | 0.23 | 0.23 | 96 | 1007.6 |
| 20260509082444 | 7 | 62 | 1.6 | 4.8 | 0.05 | 0.23 | 0.23 | 96 | 1007.7 |
| 20260509081941 | 7 | 68 | 3.2 | 3.2 | 0.00 | 0.23 | 0.23 | 96 | 1007.6 |
| 20260509081557 | 7 | 281 | 0.0 | 1.6 | 0.05 | 0.43 | 0.23 | 95 | 1006.8 |
| 20260509081438 | 7 | 64 | 1.6 | 3.2 | 0.00 | 0.23 | 0.23 | 96 | 1007.7 |
| 20260509080935 | 7 | 56 | 3.2 | 3.2 | 0.00 | 0.23 | 0.23 | 96 | 1007.6 |
| 20260509080433 | 7 | 56 | 3.2 | 3.2 | 0.00 | 0.23 | 0.23 | 96 | 1007.5 |
| 20260509080056 | 7 | 281 | 0.0 | 0.0 | 0.10 | 0.43 | 0.23 | 95 | 1006.4 |
| 20260509075931 | 7 | 55 | 3.2 | 3.2 | 0.05 | 0.23 | 0.23 | 96 | 1007.6 |
| 20260509075428 | 7 | 57 | 1.6 | 3.2 | 0.05 | 0.23 | 0.23 | 96 | 1007.9 |
| 20260509074926 | 7 | 62 | 0.0 | 3.2 | 0.05 | 0.20 | 0.20 | 96 | 1007.8 |
| 20260509074423 | 7 | 59 | 3.2 | 4.8 | 0.05 | 0.20 | 0.20 | 96 | 1007.8 |
| 20260509073919 | 7 | 55 | 3.2 | 3.2 | 0.05 | 0.20 | 0.20 | 96 | 1007.9 |
| 20260509073415 | 7 | 57 | 3.2 | 4.8 | 0.05 | 0.20 | 0.20 | 96 | 1007.8 |
| 20260509073057 | 7 | 281 | 0.0 | 0.0 | 0.15 | 0.41 | 0.20 | 95 | 1006.8 |
| 20260509072912 | 7 | 64 | 3.2 | 3.2 | 0.05 | 0.18 | 0.18 | 95 | 1007.8 |
| 20260509072409 | 7 | 67 | 3.2 | 3.2 | 0.13 | 0.18 | 0.18 | 95 | 1007.9 |
| 20260509071905 | 7 | 60 | 3.2 | 3.2 | 0.18 | 0.18 | 0.18 | 95 | 1008.0 |
| 20260509071557 | 7 | 281 | 0.0 | 1.6 | 0.13 | 0.38 | 0.18 | 95 | 1006.9 |
| 20260509071402 | 7 | 70 | 3.2 | 4.8 | 0.18 | 0.18 | 0.18 | 95 | 1008.1 |
| 20260509070900 | 7 | 55 | 3.2 | 3.2 | 0.13 | 0.15 | 0.15 | 95 | 1008.3 |
| 20260509070356 | 7 | 58 | 3.2 | 3.2 | 0.13 | 0.15 | 0.15 | 95 | 1008.2 |
| 20260509070056 | 7 | 281 | 0.0 | 1.6 | 0.10 | 0.33 | 0.13 | 94 | 1007.1 |
| 20260509065852 | 7 | 55 | 3.2 | 3.2 | 0.18 | 0.13 | 0.13 | 95 | 1008.0 |
| 20260509065349 | 7 | 58 | 3.2 | 3.2 | 0.18 | 0.13 | 0.13 | 95 | 1007.9 |
| 20260509064844 | 7 | 68 | 3.2 | 3.2 | 0.18 | 0.10 | 0.10 | 95 | 1008.0 |
| 20260509064556 | 7 | 281 | 0.0 | 0.0 | 0.08 | 0.30 | 0.10 | 94 | 1007.0 |
| 20260509064342 | 7 | 62 | 3.2 | 4.8 | 0.13 | 0.08 | 0.08 | 94 | 1008.0 |
| 20260509063840 | 7 | 60 | 3.2 | 3.2 | 0.05 | 0.08 | 0.08 | 94 | 1008.2 |
| 20260509063336 | 7 | 64 | 3.2 | 4.8 | 0.05 | 0.05 | 0.05 | 94 | 1008.3 |
| 20260509063057 | 7 | 281 | 0.0 | 1.6 | 0.03 | 0.25 | 0.05 | 93 | 1007.3 |
| 20260509062833 | 7 | 59 | 3.2 | 3.2 | 0.13 | 0.05 | 0.05 | 94 | 1008.4 |
| 20260509062330 | 7 | 65 | 1.6 | 3.2 | 0.05 | 0.05 | 0.05 | 94 | 1008.4 |
| 20260509061827 | 7 | 64 | 3.2 | 4.8 | 0.05 | 0.05 | 0.05 | 94 | 1008.5 |
| 20260509061326 | 7 | 59 | 3.2 | 3.2 | 0.05 | 0.05 | 0.05 | 94 | 1008.6 |
| 20260509060822 | 7 | 58 | 3.2 | 3.2 | 0.05 | 0.03 | 0.03 | 94 | 1008.4 |
| 20260509060319 | 7 | 55 | 4.8 | 4.8 | 0.05 | 0.03 | 0.03 | 93 | 1008.5 |
| 20260509060057 | 7 | 281 | 0.0 | 1.6 | 0.03 | 0.23 | 0.03 | 92 | 1007.5 |
| 20260509055814 | 7 | 60 | 3.2 | 4.8 | 0.05 | 0.03 | 0.03 | 93 | 1008.6 |
| 20260509055310 | 7 | 62 | 3.2 | 3.2 | 0.00 | 0.00 | 0.00 | 93 | 1008.7 |
| 20260509054808 | 7 | 57 | 3.2 | 3.2 | 0.00 | 0.00 | 0.00 | 93 | 1008.8 |
| 20260509054304 | 7 | 55 | 3.2 | 3.2 | 0.00 | 0.00 | 0.00 | 92 | 1008.2 |
| 20260509053802 | 7 | 38 | 0.0 | 3.2 | 0.00 | 0.00 | 0.00 | 92 | 1008.0 |
| 20260509053259 | 7 | 57 | 3.2 | 3.2 | 0.05 | 0.00 | 0.00 | 92 | 1008.0 |
| 20260509053057 | 7 | 281 | 0.0 | 1.6 | 0.03 | 0.23 | 0.03 | 91 | 1007.0 |
| 20260509052757 | 7 | 56 | 3.2 | 3.2 | 0.05 | 0.00 | 0.00 | 92 | 1008.1 |
| 20260509052254 | 7 | 64 | 3.2 | 3.2 | 0.00 | 0.00 | 0.00 | 91 | 1008.0 |
| 20260509051752 | 7 | 52 | 0.0 | 3.2 | 0.00 | 0.00 | 0.00 | 91 | 1008.0 |
| 20260509051556 | 7 | 281 | 0.0 | 1.6 | 0.00 | 0.20 | 0.00 | 90 | 1007.0 |
| 20260509051250 | 7 | 50 | 3.2 | 4.8 | 0.00 | 0.00 | 0.00 | 91 | 1008.2 |
| 20260509050746 | 7 | 54 | 1.6 | 3.2 | 0.00 | 0.00 | 0.00 | 91 | 1008.1 |
| 20260509050243 | 7 | 68 | 3.2 | 4.8 | 0.00 | 0.00 | 0.00 | 91 | 1008.0 |
| 20260509050057 | 7 | 281 | 0.0 | 1.6 | 0.00 | 0.20 | 0.00 | 90 | 1007.2 |
| 20260509045740 | 7 | 63 | 3.2 | 3.2 | 0.00 | 0.00 | 0.00 | 90 | 1008.0 |
| 20260509045237 | 7 | 48 | 3.2 | 4.8 | 0.00 | 0.00 | 0.00 | 90 | 1008.1 |
| 20260509044734 | 7 | 67 | 4.8 | 4.8 | 0.00 | 0.00 | 0.00 | 90 | 1008.1 |
| 20260509044557 | 7 | 281 | 0.0 | 1.6 | 0.00 | 0.20 | 0.00 | 90 | 1007.2 |
| 20260509044232 | 7 | 73 | 4.8 | 4.8 | 0.00 | 0.00 | 0.00 | 90 | 1008.0 |
| 20260509043728 | 7 | 70 | 3.2 | 4.8 | 0.00 | 0.00 | 0.00 | 90 | 1007.8 |
| 20260509043224 | 7 | 59 | 3.2 | 3.2 | 0.00 | 0.00 | 0.00 | 90 | 1008.0 |
| 20260509043056 | 7 | 281 | 0.0 | 1.6 | 0.00 | 0.30 | 0.00 | 90 | 1007.2 |
| 20260509042720 | 7 | 65 | 3.2 | 3.2 | 0.00 | 0.00 | 0.00 | 90 | 1008.2 |
| 20260509042217 | 7 | 56 | 1.6 | 3.2 | 0.00 | 0.00 | 0.00 | 90 | 1008.1 |
| 20260509041714 | 7 | 57 | 3.2 | 3.2 | 0.00 | 0.00 | 0.00 | 90 | 1008.2 |
| 20260509041556 | 7 | 281 | 0.0 | 1.6 | 0.00 | 0.33 | 0.00 | 90 | 1007.4 |
| 20260509041211 | 7 | 47 | 3.2 | 3.2 | 0.00 | 0.00 | 0.00 | 90 | 1008.3 |
| 20260509040709 | 7 | 58 | 3.2 | 4.8 | 0.00 | 0.00 | 0.00 | 90 | 1008.4 |
| 20260509040205 | 7 | 63 | 3.2 | 4.8 | 0.00 | 0.00 | 0.00 | 91 | 1008.3 |
| 20260509040057 | 7 | 281 | 0.0 | 1.6 | 0.00 | 0.43 | 0.00 | 91 | 1007.5 |
| 20260509035702 | 7 | 64 | 1.6 | 4.8 | 0.00 | 0.43 | 0.43 | 91 | 1008.4 |
| 20260509035159 | 7 | 62 | 3.2 | 3.2 | 0.00 | 0.43 | 0.43 | 91 | 1008.5 |
| 20260509034657 | 7 | 49 | 3.2 | 4.8 | 0.00 | 0.43 | 0.43 | 91 | 1008.4 |
| 20260509034556 | 7 | 281 | 0.0 | 1.6 | 0.00 | 0.51 | 0.43 | 91 | 1007.5 |
| 20260509034153 | 7 | 46 | 4.8 | 4.8 | 0.00 | 0.43 | 0.43 | 91 | 1008.5 |
| 20260509033651 | 7 | 62 | 0.0 | 4.8 | 0.00 | 0.43 | 0.43 | 91 | 1008.1 |
| 20260509033147 | 7 | 68 | 4.8 | 4.8 | 0.00 | 0.43 | 0.43 | 91 | 1008.4 |
| 20260509033057 | 7 | 281 | 0.0 | 1.6 | 0.00 | 0.64 | 0.43 | 90 | 1007.5 |
| 20260509032645 | 6 | 55 | 3.2 | 4.8 | 0.00 | 0.43 | 0.43 | 91 | 1008.5 |
| 20260509032142 | 6 | 56 | 3.2 | 4.8 | 0.00 | 0.43 | 0.43 | 91 | 1008.4 |
| 20260509031639 | 6 | 55 | 1.6 | 4.8 | 0.00 | 0.43 | 0.43 | 91 | 1008.3 |
| 20260509031136 | 6 | 67 | 3.2 | 4.8 | 0.00 | 0.43 | 0.43 | 90 | 1008.2 |
| 20260509030635 | 6 | 56 | 3.2 | 3.2 | 0.00 | 0.43 | 0.43 | 90 | 1008.4 |
| 20260509030132 | 7 | 61 | 3.2 | 4.8 | 0.00 | 0.43 | 0.43 | 90 | 1008.4 |
| 20260509030056 | 7 | 281 | 0.0 | 0.0 | 0.00 | 0.64 | 0.43 | 87 | 1007.6 |
| 20260509025627 | 7 | 64 | 1.6 | 3.2 | 0.00 | 0.43 | 0.43 | 89 | 1008.4 |
| 20260509025123 | 7 | 61 | 3.2 | 4.8 | 0.00 | 0.43 | 0.43 | 89 | 1008.4 |
| 20260509024619 | 7 | 59 | 3.2 | 3.2 | 0.00 | 0.43 | 0.43 | 89 | 1008.5 |
| 20260509024556 | 7 | 281 | 0.0 | 1.6 | 0.00 | 0.64 | 0.43 | 86 | 1007.5 |
| 20260509024115 | 7 | 46 | 3.2 | 3.2 | 0.00 | 0.43 | 0.43 | 89 | 1008.5 |
| 20260509023614 | 7 | 64 | 3.2 | 4.8 | 0.00 | 0.43 | 0.43 | 88 | 1008.3 |
| 20260509023110 | 7 | 55 | 3.2 | 3.2 | 0.00 | 0.43 | 0.43 | 88 | 1008.4 |
| 20260509023057 | 8 | 281 | 0.0 | 0.0 | 0.00 | 0.64 | 0.43 | 85 | 1007.5 |
| 20260509022606 | 7 | 65 | 1.6 | 3.2 | 0.00 | 0.43 | 0.43 | 87 | 1008.3 |
| 20260509022104 | 7 | 59 | 3.2 | 3.2 | 0.00 | 0.43 | 0.43 | 86 | 1008.3 |
| 20260509021601 | 7 | 49 | 3.2 | 4.8 | 0.00 | 0.43 | 0.43 | 85 | 1008.2 |
| 20260509021556 | 8 | 281 | 0.0 | 0.0 | 0.00 | 0.64 | 0.43 | 83 | 1007.5 |
| 20260509021058 | 7 | 47 | 3.2 | 3.2 | 0.00 | 0.43 | 0.43 | 85 | 1008.4 |
| 20260509020557 | 8 | 55 | 3.2 | 4.8 | 0.00 | 0.43 | 0.43 | 85 | 1008.3 |
| 20260509020053 | 8 | 77 | 3.2 | 4.8 | 0.00 | 0.43 | 0.43 | 84 | 1008.3 |
| 20260509015552 | 8 | 46 | 0.0 | 3.2 | 0.00 | 0.43 | 0.43 | 83 | 1008.4 |
| 20260509015049 | 8 | 62 | 3.2 | 3.2 | 0.00 | 0.43 | 0.43 | 82 | 1008.2 |
| 20260509014557 | 9 | 281 | 0.0 | 0.0 | 0.00 | 0.64 | 0.43 | 80 | 1007.4 |
| 20260509014545 | 8 | 60 | 3.2 | 3.2 | 0.00 | 0.43 | 0.43 | 81 | 1008.2 |
| 20260509014042 | 8 | 55 | 3.2 | 4.8 | 0.00 | 0.43 | 0.43 | 81 | 1008.0 |
| 20260509013539 | 8 | 59 | 3.2 | 3.2 | 0.00 | 0.43 | 0.43 | 81 | 1008.2 |
| 20260509013034 | 9 | 54 | 3.2 | 4.8 | 0.00 | 0.43 | 0.43 | 80 | 1008.2 |
| 20260509012531 | 9 | 56 | 3.2 | 3.2 | 0.00 | 0.43 | 0.43 | 80 | 1008.1 |
| 20260509012028 | 9 | 57 | 3.2 | 3.2 | 0.00 | 0.43 | 0.43 | 80 | 1008.2 |
| 20260509011526 | 9 | 58 | 3.2 | 3.2 | 0.00 | 0.43 | 0.43 | 80 | 1008.2 |
| 20260509011023 | 9 | 57 | 3.2 | 4.8 | 0.00 | 0.43 | 0.43 | 81 | 1008.0 |
| 20260509010521 | 9 | 57 | 3.2 | 3.2 | 0.00 | 0.43 | 0.43 | 80 | 1008.0 |
| 20260509010056 | 9 | 281 | 0.0 | 1.6 | 0.00 | 0.64 | 0.43 | 79 | 1007.1 |
| 20260509010017 | 9 | 52 | 3.2 | 3.2 | 0.00 | 0.43 | 0.43 | 79 | 1007.9 |
| 20260509005515 | 9 | 52 | 3.2 | 3.2 | 0.00 | 0.43 | 0.43 | 79 | 1008.0 |
| 20260509005015 | 9 | 55 | 1.6 | 3.2 | 0.00 | 0.43 | 0.43 | 79 | 1007.7 |
| 20260509004556 | 9 | 281 | 0.0 | 1.6 | 0.00 | 0.64 | 0.43 | 78 | 1006.9 |
| 20260509004512 | 9 | 48 | 1.6 | 3.2 | 0.00 | 0.43 | 0.43 | 78 | 1007.6 |
| 20260509004009 | 9 | 51 | 1.6 | 3.2 | 0.00 | 0.43 | 0.43 | 78 | 1007.5 |
| 20260509003508 | 9 | 56 | 1.6 | 3.2 | 0.00 | 0.43 | 0.43 | 78 | 1007.5 |
| 20260509003056 | 10 | 281 | 0.0 | 1.6 | 0.00 | 0.64 | 0.43 | 77 | 1006.5 |
| 20260509003004 | 9 | 51 | 3.2 | 3.2 | 0.00 | 0.43 | 0.43 | 77 | 1007.3 |
| 20260509002503 | 9 | 40 | 1.6 | 3.2 | 0.00 | 0.43 | 0.43 | 77 | 1007.4 |
| 20260509001959 | 10 | 56 | 3.2 | 4.8 | 0.00 | 0.43 | 0.43 | 76 | 1007.3 |
| 20260509001556 | 10 | 281 | 0.0 | 1.6 | 0.00 | 0.64 | 0.43 | 76 | 1006.6 |
| 20260509001455 | 10 | 49 | 3.2 | 3.2 | 0.00 | 0.43 | 0.43 | 76 | 1007.3 |
| 20260509000952 | 10 | 54 | 3.2 | 4.8 | 0.00 | 0.43 | 0.43 | 75 | 1007.4 |
| 20260509000451 | 10 | 53 | 3.2 | 4.8 | 0.00 | 0.43 | 0.43 | 76 | 1007.5 |
| 20260509000055 | 10 | 274 | 0.0 | 1.6 | 0.00 | 0.64 | 0.43 | 76 | 1006.7 |
| 20260508235946 | 10 | 38 | 0.0 | 3.2 | 0.00 | 0.43 | 0.43 | 76 | 1007.5 |
| 20260508235444 | 10 | 61 | 3.2 | 3.2 | 0.00 | 0.43 | 0.43 | 77 | 1007.7 |
| 20260508234940 | 10 | 52 | 3.2 | 3.2 | 0.00 | 0.43 | 0.43 | 76 | 1007.6 |
| 20260508234556 | 10 | 274 | 0.0 | 0.0 | 0.00 | 0.64 | 0.43 | 76 | 1006.7 |
| 20260508234437 | 10 | 52 | 1.6 | 3.2 | 0.00 | 0.43 | 0.43 | 75 | 1007.4 |
| 20260508233935 | 10 | 51 | 3.2 | 3.2 | 0.00 | 0.43 | 0.43 | 76 | 1007.4 |
| 20260508233434 | 10 | 65 | 3.2 | 3.2 | 0.00 | 0.43 | 0.43 | 75 | 1007.3 |
| 20260508233057 | 10 | 274 | 0.0 | 3.2 | 0.00 | 0.64 | 0.43 | 74 | 1006.5 |
| 20260508232930 | 10 | 23 | 0.0 | 3.2 | 0.00 | 0.43 | 0.43 | 74 | 1007.1 |
| 20260508232428 | 10 | 57 | 0.0 | 3.2 | 0.00 | 0.43 | 0.43 | 75 | 1007.3 |
| 20260508231925 | 10 | 37 | 0.0 | 3.2 | 0.00 | 0.43 | 0.43 | 75 | 1007.1 |
| 20260508231557 | 10 | 221 | 0.0 | 4.8 | 0.00 | 0.64 | 0.43 | 74 | 1006.2 |
| 20260508231422 | 10 | 32 | 1.6 | 3.2 | 0.00 | 0.43 | 0.43 | 74 | 1007.0 |
| 20260508230919 | 10 | 76 | 1.6 | 3.2 | 0.00 | 0.43 | 0.43 | 72 | 1007.1 |
| 20260508230415 | 10 | 82 | 0.0 | 4.8 | 0.00 | 0.43 | 0.43 | 72 | 1006.9 |
| 20260508230057 | 10 | 277 | 0.0 | 3.2 | 0.00 | 0.64 | 0.43 | 73 | 1006.2 |
| 20260508225912 | 10 | 50 | 1.6 | 3.2 | 0.00 | 0.43 | 0.43 | 73 | 1006.9 |
| 20260508225409 | 10 | 47 | 3.2 | 4.8 | 0.00 | 0.43 | 0.43 | 72 | 1007.2 |
| 20260508224907 | 10 | 52 | 1.6 | 3.2 | 0.00 | 0.43 | 0.43 | 72 | 1007.0 |
| 20260508224557 | 11 | 263 | 1.6 | 3.2 | 0.00 | 0.64 | 0.43 | 72 | 1006.4 |